| time (UTC) | temp C | wind direction | speed KPH | gust KPH | rain 1hr cm | rain 24hr cm | rain mn cm | humidity % | barometer mb |
| 20260505070557 | 3 | 238 | 24.1 | 43.5 | 0.00 | 0.36 | 0.00 | 94 | 1008.0 |
| 20260505065558 | 3 | 287 | 20.9 | 46.7 | 0.00 | 0.41 | 0.00 | 94 | 1007.9 |
| 20260505064557 | 3 | 261 | 17.7 | 38.6 | 0.00 | 0.41 | 0.00 | 93 | 1007.6 |
| 20260505063600 | 3 | 241 | 22.5 | 45.1 | 0.00 | 0.41 | 0.00 | 93 | 1007.5 |
| 20260505062554 | 4 | 307 | 22.5 | 49.9 | 0.00 | 0.41 | 0.00 | 93 | 1007.1 |
| 20260505061557 | 4 | 229 | 25.7 | 43.5 | 0.00 | 0.41 | 0.00 | 93 | 1007.0 |
| 20260505061051 | 4 | 176 | 17.7 | 45.1 | 0.00 | 0.41 | 0.00 | 92 | 1007.0 |
| 20260505060542 | 4 | 260 | 22.5 | 45.1 | 0.00 | 0.41 | 0.00 | 93 | 1006.8 |
| 20260505055601 | 4 | 243 | 25.7 | 43.5 | 0.00 | 0.43 | 0.00 | 92 | 1006.6 |
| 20260505055100 | 4 | 243 | 27.4 | 41.8 | 0.00 | 0.43 | 0.00 | 92 | 1006.6 |
| 20260505054554 | 4 | 248 | 24.1 | 46.7 | 0.00 | 0.43 | 0.00 | 92 | 1006.3 |
| 20260505054041 | 4 | 233 | 24.1 | 46.7 | 0.00 | 0.43 | 0.00 | 92 | 1006.3 |
| 20260505053112 | 4 | 307 | 22.5 | 43.5 | 0.00 | 0.43 | 0.00 | 92 | 1006.2 |
| 20260505051607 | 4 | 238 | 20.9 | 40.2 | 0.00 | 0.43 | 0.00 | 93 | 1006.0 |
| 20260505051049 | 4 | 283 | 20.9 | 40.2 | 0.00 | 0.43 | 0.00 | 92 | 1005.9 |
| 20260505041059 | 5 | 265 | 25.7 | 46.7 | 0.00 | 0.43 | 0.00 | 89 | 1005.3 |
| 20260505040543 | 5 | 207 | 25.7 | 49.9 | 0.00 | 0.43 | 0.00 | 89 | 1005.2 |
| 20260505035553 | 5 | 237 | 22.5 | 48.3 | 0.00 | 0.43 | 0.00 | 89 | 1005.2 |
| 20260505035054 | 5 | 354 | 25.7 | 48.3 | 0.00 | 0.43 | 0.00 | 88 | 1005.2 |
| 20260505034549 | 5 | 250 | 20.9 | 46.7 | 0.00 | 0.43 | 0.00 | 88 | 1005.3 |
| 20260505033548 | 5 | 260 | 22.5 | 38.6 | 0.00 | 0.43 | 0.00 | 88 | 1005.2 |
| 20260505032547 | 5 | 223 | 24.1 | 49.9 | 0.00 | 0.43 | 0.00 | 88 | 1005.1 |
| 20260505031559 | 5 | 239 | 24.1 | 45.1 | 0.00 | 0.43 | 0.00 | 88 | 1004.8 |
| 20260505031053 | 5 | 256 | 22.5 | 49.9 | 0.00 | 0.43 | 0.00 | 88 | 1004.5 |
| 20260505030131 | 5 | 202 | 22.5 | 46.7 | 0.00 | 0.43 | 0.00 | 87 | 1004.6 |
| 20260505025557 | 5 | 243 | 25.7 | 45.1 | 0.00 | 0.43 | 0.43 | 86 | 1004.4 |
| 20260505024606 | 6 | 207 | 25.7 | 49.9 | 0.00 | 0.43 | 0.43 | 85 | 1004.2 |
| 20260505023552 | 5 | 240 | 27.4 | 48.3 | 0.00 | 0.43 | 0.43 | 85 | 1004.0 |
| 20260505022601 | 5 | 253 | 27.4 | 46.7 | 0.00 | 0.43 | 0.43 | 84 | 1004.2 |
| 20260505021602 | 5 | 253 | 22.5 | 49.9 | 0.00 | 0.43 | 0.43 | 83 | 1003.9 |
| 20260505020555 | 6 | 243 | 25.7 | 46.7 | 0.00 | 0.43 | 0.43 | 82 | 1003.6 |
| 20260505015047 | 6 | 239 | 29.0 | 46.7 | 0.00 | 0.43 | 0.43 | 81 | 1003.6 |
| 20260505014055 | 6 | 224 | 29.0 | 51.5 | 0.00 | 0.43 | 0.43 | 81 | 1003.6 |
| 20260505013548 | 6 | 211 | 29.0 | 49.9 | 0.00 | 0.43 | 0.43 | 80 | 1003.6 |
| 20260505012554 | 6 | 262 | 24.1 | 49.9 | 0.00 | 0.43 | 0.43 | 77 | 1003.5 |
| 20260505012047 | 6 | 212 | 25.7 | 49.9 | 0.00 | 0.43 | 0.43 | 77 | 1003.3 |
| 20260505011111 | 6 | 285 | 24.1 | 46.7 | 0.00 | 0.43 | 0.43 | 77 | 1003.3 |
| 20260505010105 | 6 | 202 | 27.4 | 56.3 | 0.00 | 0.43 | 0.43 | 78 | 1003.3 |
| 20260505005557 | 6 | 225 | 27.4 | 56.3 | 0.00 | 0.46 | 0.43 | 78 | 1003.2 |
| 20260505005050 | 6 | 21 | 29.0 | 56.3 | 0.00 | 0.46 | 0.43 | 76 | 1003.0 |
| 20260505004057 | 6 | 210 | 30.6 | 61.2 | 0.00 | 0.46 | 0.43 | 74 | 1003.2 |
| 20260505003108 | 6 | 156 | 37.0 | 54.7 | 0.00 | 0.46 | 0.43 | 73 | 1003.2 |
| 20260505002052 | 6 | 182 | 29.0 | 53.1 | 0.00 | 0.46 | 0.43 | 73 | 1003.0 |
| 20260505001058 | 6 | 225 | 25.7 | 46.7 | 0.00 | 0.46 | 0.43 | 75 | 1002.7 |
| 20260505000057 | 6 | 281 | 29.0 | 51.5 | 0.00 | 0.46 | 0.43 | 74 | 1002.5 |
| 20260504235052 | 6 | 266 | 22.5 | 41.8 | 0.00 | 0.51 | 0.43 | 74 | 1002.4 |
| 20260504234053 | 6 | 227 | 29.0 | 49.9 | 0.00 | 0.51 | 0.43 | 73 | 1002.3 |
| 20260504233105 | 6 | 197 | 20.9 | 43.5 | 0.00 | 0.51 | 0.43 | 70 | 1002.0 |
| 20260504232059 | 6 | 245 | 19.3 | 40.2 | 0.00 | 0.51 | 0.43 | 69 | 1002.1 |
| 20260504231553 | 6 | 258 | 19.3 | 40.2 | 0.00 | 0.51 | 0.43 | 67 | 1002.2 |
| 20260504230549 | 6 | 249 | 19.3 | 38.6 | 0.00 | 0.51 | 0.43 | 68 | 1002.0 |
| 20260504230050 | 6 | 291 | 20.9 | 38.6 | 0.00 | 0.51 | 0.43 | 67 | 1002.1 |
| 20260504225103 | 6 | 238 | 22.5 | 46.7 | 0.00 | 0.71 | 0.43 | 69 | 1002.1 |
| 20260504224048 | 6 | 253 | 17.7 | 41.8 | 0.00 | 0.71 | 0.43 | 71 | 1002.1 |
| 20260504223107 | 6 | 260 | 19.3 | 40.2 | 0.00 | 0.71 | 0.43 | 72 | 1002.1 |
| 20260504222548 | 6 | 250 | 19.3 | 37.0 | 0.00 | 0.71 | 0.43 | 72 | 1002.0 |
| 20260504221608 | 6 | 247 | 20.9 | 37.0 | 0.00 | 0.71 | 0.43 | 72 | 1001.9 |
| 20260504220558 | 6 | 243 | 19.3 | 40.2 | 0.00 | 0.71 | 0.43 | 74 | 1001.8 |
| 20260504215556 | 6 | 229 | 22.5 | 37.0 | 0.00 | 0.99 | 0.43 | 74 | 1001.9 |
| 20260504215056 | 6 | 252 | 20.9 | 37.0 | 0.00 | 0.99 | 0.43 | 73 | 1001.8 |
| 20260504214055 | 6 | 266 | 20.9 | 45.1 | 0.00 | 0.99 | 0.43 | 74 | 1001.8 |
| 20260504213554 | 6 | 265 | 22.5 | 43.5 | 0.00 | 0.99 | 0.43 | 74 | 1001.7 |
| 20260504213114 | 6 | 257 | 24.1 | 43.5 | 0.00 | 0.99 | 0.43 | 74 | 1001.7 |
| 20260504212105 | 6 | 243 | 24.1 | 43.5 | 0.00 | 0.99 | 0.43 | 76 | 1001.4 |
| 20260504211057 | 7 | 266 | 22.5 | 43.5 | 0.00 | 0.99 | 0.43 | 76 | 1001.3 |
| 20260504210058 | 6 | 253 | 25.7 | 46.7 | 0.00 | 0.99 | 0.43 | 77 | 1000.7 |
| 20260504204611 | 6 | 295 | 25.7 | 46.7 | 0.00 | 1.22 | 0.43 | 78 | 1000.6 |
| 20260504203555 | 6 | 220 | 25.7 | 48.3 | 0.00 | 1.22 | 0.43 | 81 | 1000.4 |
| 20260504203054 | 5 | 261 | 24.1 | 45.1 | 0.00 | 1.22 | 0.43 | 82 | 1000.7 |
| 20260504202548 | 5 | 260 | 22.5 | 49.9 | 0.00 | 1.22 | 0.43 | 83 | 1000.5 |
| 20260504201544 | 5 | 270 | 24.1 | 46.7 | 0.00 | 1.22 | 0.43 | 85 | 1000.3 |
| 20260504200549 | 5 | 250 | 20.9 | 45.1 | 0.03 | 1.22 | 0.43 | 88 | 1000.3 |
| 20260504195555 | 5 | 254 | 20.9 | 38.6 | 0.03 | 1.24 | 0.43 | 91 | 999.8 |
| 20260504195051 | 5 | 237 | 20.9 | 46.7 | 0.03 | 1.24 | 0.43 | 92 | 999.6 |
| 20260504194549 | 4 | 268 | 25.7 | 46.7 | 0.03 | 1.24 | 0.43 | 94 | 999.5 |
| 20260504193553 | 4 | 259 | 24.1 | 40.2 | 0.03 | 1.24 | 0.43 | 96 | 999.6 |
| 20260504192605 | 4 | 277 | 20.9 | 41.8 | 0.03 | 1.24 | 0.43 | 98 | 999.4 |
| 20260504192044 | 4 | 268 | 24.1 | 43.5 | 0.03 | 1.24 | 0.43 | 98 | 999.2 |
| 20260504191103 | 3 | 221 | 25.7 | 41.8 | 0.00 | 1.22 | 0.41 | 99 | 999.2 |
| 20260504185055 | 2 | 259 | 25.7 | 45.1 | 0.00 | 1.22 | 0.41 | 99 | 998.7 |
| 20260504184048 | 2 | 264 | 22.5 | 38.6 | 0.00 | 1.22 | 0.41 | 99 | 998.8 |
| 20260504183111 | 2 | 291 | 22.5 | 45.1 | 0.00 | 1.22 | 0.41 | 99 | 998.7 |
| 20260504182555 | 2 | 270 | 20.9 | 41.8 | 0.00 | 1.22 | 0.41 | 100 | 998.5 |
| 20260504181557 | 2 | 253 | 27.4 | 43.5 | 0.00 | 1.22 | 0.41 | 100 | 998.6 |
| 20260504180558 | 2 | 290 | 24.1 | 43.5 | 0.00 | 1.22 | 0.41 | 99 | 998.5 |
| 20260504175554 | 2 | 294 | 25.7 | 46.7 | 0.00 | 1.22 | 0.41 | 100 | 998.0 |
| 20260504174049 | 2 | 356 | 25.7 | 49.9 | 0.00 | 1.22 | 0.41 | 100 | 997.6 |
| 20260504173109 | 2 | 291 | 25.7 | 51.5 | 0.00 | 1.22 | 0.41 | 100 | 997.4 |
| 20260504172103 | 1 | 281 | 29.0 | 49.9 | 0.00 | 1.22 | 0.41 | 100 | 997.3 |
| 20260504171057 | 1 | 214 | 24.1 | 45.1 | 0.00 | 1.22 | 0.41 | 100 | 997.3 |
| 20260504170556 | 1 | 277 | 29.0 | 45.1 | 0.00 | 1.22 | 0.41 | 100 | 996.9 |
| 20260504151057 | 0 | 268 | 27.4 | 45.1 | 0.00 | 1.22 | 0.41 | 99 | 993.9 |
| 20260504140554 | 0 | 353 | 29.0 | 46.7 | 0.05 | 1.22 | 0.41 | 99 | 991.8 |
| 20260504130602 | 0 | 214 | 20.9 | 43.5 | 0.05 | 1.17 | 0.36 | 99 | 989.5 |
| 20260504120105 | 0 | 245 | 19.3 | 35.4 | 0.05 | 1.14 | 0.33 | 99 | 986.9 |
| 20260504110559 | 0 | 290 | 20.9 | 41.8 | 0.05 | 1.12 | 0.30 | 99 | 984.0 |
| 20260504100544 | 0 | 340 | 17.7 | 33.8 | 0.03 | 1.09 | 0.25 | 98 | 980.9 |
| 20260504081101 | 0 | 282 | 11.3 | 19.3 | 0.10 | 0.99 | 0.15 | 98 | 975.9 |